�������l�o���
Date,Time,MP-1(��Sv/h),MP-2(��Sv/h),MP-3(��Sv/h),MP-4(��Sv/h),MP-5(��Sv/h),MP-6(��Sv/h),MP-7(��Sv/h),MP-8(��Sv/h),����,����(m/s),���J
2016/11/19,00:00,1.125,1.909,1.283,2.151,1.502,0.584,1.064,0.981,��쐼,5.5,��
2016/11/19,00:10,1.123,1.906,1.284,2.151,1.505,0.585,1.064,0.980,��쐼,4.6,��
2016/11/19,00:20,1.122,1.906,1.283,2.149,1.504,0.585,1.061,0.979,��쐼,5.1,��
2016/11/19,00:30,1.124,1.910,1.283,2.151,1.505,0.586,1.064,0.980,��,5.4,��
2016/11/19,00:40,1.124,1.908,1.284,2.147,1.504,0.586,1.064,0.981,��,6.0,��
2016/11/19,00:50,1.122,1.904,1.283,2.150,1.504,0.584,1.063,0.980,��,5.8,��
2016/11/19,01:00,1.123,1.906,1.281,2.145,1.505,0.585,1.063,0.982,��,5.9,��
2016/11/19,01:10,1.123,1.910,1.282,2.147,1.502,0.585,1.064,0.981,��,4.7,��
2016/11/19,01:20,1.121,1.907,1.282,2.152,1.505,0.585,1.064,0.980,��쐼,4.5,��
2016/11/19,01:30,1.123,1.907,1.282,2.148,1.505,0.584,1.065,0.982,��쐼,4.7,��
2016/11/19,01:40,1.123,1.907,1.282,2.148,1.503,0.587,1.065,0.980,��쐼,5.4,��
2016/11/19,01:50,1.122,1.906,1.284,2.147,1.504,0.585,1.065,0.980,��쐼,4.2,��
2016/11/19,02:00,1.122,1.908,1.283,2.147,1.503,0.586,1.064,0.980,��쐼,3.4,��
2016/11/19,02:10,1.122,1.909,1.284,2.149,1.503,0.584,1.063,0.980,��쐼,3.3,��
2016/11/19,02:20,1.121,1.909,1.281,2.150,1.501,0.585,1.066,0.979,�쐼,3.4,��
2016/11/19,02:30,1.123,1.908,1.281,2.146,1.503,0.587,1.065,0.981,��,2.5,��
2016/11/19,02:40,1.122,1.905,1.279,2.151,1.503,0.585,1.065,0.979,��쐼,3.9,��
2016/11/19,02:50,1.122,1.906,1.280,2.151,1.505,0.584,1.066,0.982,��쐼,4.7,��
2016/11/19,03:00,1.122,1.904,1.280,2.150,1.500,0.586,1.064,0.980,��쐼,5.4,��
2016/11/19,03:10,1.124,1.908,1.283,2.148,1.503,0.585,1.061,0.980,��쐼,4.5,��
2016/11/19,03:20,1.122,1.906,1.281,2.149,1.502,0.583,1.063,0.978,��,4.0,��
2016/11/19,03:30,1.124,1.907,1.284,2.149,1.502,0.584,1.065,0.980,��,4.9,��
2016/11/19,03:40,1.124,1.905,1.282,2.151,1.504,0.585,1.066,0.980,��,6.4,��
2016/11/19,03:50,1.124,1.906,1.284,2.152,1.504,0.586,1.066,0.981,��,6.2,��
2016/11/19,04:00,1.123,1.909,1.284,2.153,1.503,0.585,1.066,0.980,��,7.1,��
2016/11/19,04:10,1.124,1.910,1.283,2.150,1.504,0.586,1.065,0.982,��,7.6,��
2016/11/19,04:20,1.125,1.908,1.281,2.150,1.504,0.584,1.065,0.981,��,7.6,��
2016/11/19,04:30,1.123,1.909,1.282,2.150,1.504,0.585,1.066,0.980,��,7.2,��
2016/11/19,04:40,1.125,1.911,1.284,2.153,1.501,0.585,1.064,0.981,��쐼,8.4,��
2016/11/19,04:50,1.124,1.909,1.281,2.148,1.505,0.586,1.066,0.980,��쐼,7.6,��
2016/11/19,05:00,1.121,1.907,1.282,2.150,1.504,0.585,1.064,0.979,��쐼,7.3,��
2016/11/19,05:10,1.121,1.909,1.284,2.150,1.502,0.585,1.064,0.981,��쐼,6.5,��
2016/11/19,05:20,1.123,1.909,1.282,2.150,1.503,0.586,1.065,0.982,��쐼,6.1,��
2016/11/19,05:30,1.125,1.910,1.280,2.152,1.505,0.585,1.065,0.981,��쐼,5.4,��
2016/11/19,05:40,1.122,1.908,1.281,2.150,1.501,0.586,1.061,0.981,��쐼,5.8,��
2016/11/19,05:50,1.123,1.906,1.283,2.149,1.499,0.587,1.064,0.980,��쓌,4.8,��
2016/11/19,06:00,1.121,1.908,1.284,2.149,1.505,0.584,1.065,0.981,��,4.3,��
2016/11/19,06:10,1.123,1.908,1.280,2.151,1.502,0.586,1.064,0.982,��,4.0,��
2016/11/19,06:20,1.122,1.906,1.283,2.150,1.504,0.583,1.065,0.979,��,3.6,��
2016/11/19,06:30,1.124,1.905,1.284,2.151,1.504,0.584,1.065,0.980,��,3.7,��
2016/11/19,06:40,1.123,1.909,1.284,2.150,1.504,0.584,1.065,0.982,��,3.4,��
2016/11/19,06:50,1.123,1.908,1.283,2.149,1.504,0.585,1.064,0.980,��,3.7,��
2016/11/19,07:00,1.124,1.908,1.282,2.149,1.502,0.583,1.064,0.980,��,4.3,��
2016/11/19,07:10,1.122,1.910,1.284,2.153,1.502,0.586,1.064,0.979,��쓌,3.9,��
2016/11/19,07:20,1.122,1.911,1.282,2.148,1.503,0.585,1.063,0.980,��,4.1,��
2016/11/19,07:30,1.125,1.907,1.284,2.151,1.503,0.587,1.062,0.981,��,3.9,��
2016/11/19,07:40,1.123,1.908,1.281,2.152,1.505,0.584,1.064,0.980,��,4.3,��
2016/11/19,07:50,1.122,1.907,1.279,2.149,1.506,0.584,1.066,0.982,��,4.7,��
2016/11/19,08:00,1.124,1.905,1.278,2.152,1.504,0.585,1.060,0.980,��쓌,4.3,��
2016/11/19,08:10,1.124,1.907,1.278,2.153,1.502,0.586,1.063,0.980,��,4.9,��
2016/11/19,08:20,1.120,1.905,1.279,2.151,1.503,0.585,1.064,0.981,��,5.2,��
2016/11/19,08:30,1.122,1.909,1.278,2.150,1.501,0.585,1.062,0.981,��,4.7,��
2016/11/19,08:40,1.122,1.910,1.278,2.155,1.502,0.585,1.063,0.981,��,4.0,��
2016/11/19,08:50,1.124,1.908,1.277,2.151,1.505,0.586,1.063,0.982,��,3.3,��
2016/11/19,09:00,1.122,1.908,1.280,2.152,1.505,0.586,1.063,0.983,��쓌,2.9,��
2016/11/19,09:10,1.124,1.906,1.279,2.148,1.507,0.585,1.063,0.981,��쓌,4.1,��
2016/11/19,09:20,1.123,1.906,1.278,2.149,1.504,0.585,1.064,0.982,��쓌,1.9,��
2016/11/19,09:30,1.121,1.908,1.277,2.151,1.502,0.587,1.063,0.980,��,1.4,��
2016/11/19,09:40,1.126,1.908,1.280,2.152,1.506,0.587,1.063,0.983,���쐼,1.2,�L
2016/11/19,09:50,1.124,1.907,1.282,2.154,1.505,0.588,1.062,0.982,��쐼,1.9,�L
2016/11/19,10:00,1.124,1.907,1.282,2.151,1.505,0.586,1.065,0.982,��,2.0,�L
2016/11/19,10:10,1.122,1.905,1.281,2.154,1.505,0.586,1.063,0.980,�쓌,2.0,�L
2016/11/19,10:20,1.122,1.906,1.284,2.152,1.501,0.588,1.065,0.981,��,1.4,�L
2016/11/19,10:30,1.123,1.906,1.280,2.153,1.501,0.588,1.062,0.981,-,CALM,�L
2016/11/19,10:40,1.121,1.901,1.279,2.150,1.501,0.588,1.062,0.981,�k�k��,1.5,�L
2016/11/19,10:50,1.123,1.902,1.280,2.151,1.499,0.589,1.062,0.981,�k�k��,2.2,�L
2016/11/19,11:00,1.121,1.900,1.276,2.148,1.495,0.588,1.062,0.981,�k,1.5,�L
2016/11/19,11:10,1.119,1.895,1.277,2.150,1.495,0.589,1.060,0.980,�k,3.0,�L
2016/11/19,11:20,1.120,1.897,1.274,2.148,1.493,0.587,1.060,0.978,�k,4.0,�L
2016/11/19,11:30,1.118,1.893,1.273,2.145,1.491,0.584,1.059,0.980,�k,3.8,�L
2016/11/19,11:40,1.117,1.891,1.270,2.143,1.487,0.586,1.060,0.978,�k,4.9,�L
2016/11/19,11:50,1.116,1.884,1.265,2.139,1.482,0.586,1.058,0.977,�k,5.7,�L
2016/11/19,12:00,1.112,1.878,1.267,2.137,1.479,0.586,1.057,0.977,�k�k��,5.7,�L
2016/11/19,12:10,1.112,1.874,1.260,2.132,1.476,0.585,1.056,0.976,�k�k��,5.5,�L
2016/11/19,12:20,1.109,1.867,1.256,2.120,1.470,0.586,1.053,0.974,�k�k��,5.8,�L
2016/11/19,12:30,1.104,1.853,1.254,2.110,1.460,0.584,1.050,0.973,�k�k��,6.2,�L
2016/11/19,12:40,1.101,1.843,1.250,2.095,1.450,0.585,1.048,0.969,�k�k��,5.3,�L
2016/11/19,12:50,1.096,1.832,1.249,2.088,1.446,0.584,1.046,0.966,�k�k��,7.6,�L
2016/11/19,13:00,1.091,1.826,1.242,2.074,1.439,0.582,1.043,0.966,�k,7.8,�L
2016/11/19,13:10,1.087,1.813,1.238,2.066,1.427,0.582,1.040,0.961,�k�k��,5.8,�L
2016/11/19,13:20,1.081,1.800,1.233,2.053,1.421,0.581,1.038,0.960,�k�k��,1.2,�L
2016/11/19,13:30,1.081,1.804,1.232,2.054,1.419,0.580,1.037,0.958,�k�k��,7.2,�L
2016/11/19,13:40,1.080,1.802,1.229,2.047,1.416,0.580,1.035,0.957,�k�k��,5.5,�L
2016/11/19,13:50,1.078,1.797,1.228,2.043,1.411,0.578,1.034,0.960,�k�k��,7.1,�L
2016/11/19,14:00,1.079,1.797,1.229,2.044,1.410,0.577,1.033,0.958,�k�k��,5.2,�L
2016/11/19,14:10,1.080,1.802,1.230,2.046,1.412,0.578,1.033,0.959,�k�k��,5.1,�L
2016/11/19,14:20,1.083,1.803,1.229,2.045,1.413,0.579,1.036,0.959,�k�k��,4.8,�L
2016/11/19,14:30,1.087,1.811,1.231,2.049,1.416,0.579,1.034,0.962,�k�k��,4.7,�L
2016/11/19,14:40,1.088,1.811,1.233,2.053,1.417,0.580,1.035,0.962,�k�k��,4.1,�L
2016/11/19,14:50,1.083,1.815,1.233,2.058,1.416,0.582,1.035,0.961,�k�k��,4.3,�L
2016/11/19,15:00,1.085,1.816,1.228,2.054,1.419,0.578,1.034,0.961,�k��,4.8,�L
2016/11/19,15:10,1.085,1.813,1.229,2.052,1.416,0.579,1.034,0.961,�k��,4.5,�L
2016/11/19,15:20,1.084,1.815,1.230,2.049,1.416,0.579,1.035,0.960,�k�k��,6.3,�L
2016/11/19,15:30,1.086,1.815,1.230,2.050,1.419,0.578,1.034,0.960,�k�k��,6.1,��
2016/11/19,15:40,1.085,1.819,1.227,2.052,1.419,0.578,1.035,0.962,�k�k��,5.5,�L
2016/11/19,15:50,1.084,1.815,1.229,2.052,1.418,0.576,1.034,0.961,�k��,6.2,�L
2016/11/19,16:00,1.087,1.818,1.228,2.055,1.417,0.576,1.035,0.961,�k�k��,6.6,�L
2016/11/19,16:10,1.084,1.821,1.227,2.054,1.420,0.576,1.036,0.962,�k��,5.9,��
2016/11/19,16:20,1.087,1.821,1.227,2.052,1.418,0.574,1.034,0.961,�k�k��,6.2,��
2016/11/19,16:30,1.085,1.822,1.228,2.051,1.417,0.573,1.036,0.960,�k�k��,5.8,��
2016/11/19,16:40,1.084,1.821,1.225,2.053,1.416,0.572,1.034,0.962,�k��,6.2,��
2016/11/19,16:50,1.085,1.821,1.228,2.053,1.416,0.572,1.035,0.961,�k��,6.3,��
2016/11/19,17:00,1.083,1.821,1.225,2.056,1.418,0.572,1.037,0.959,�k��,6.3,��
2016/11/19,17:10,1.084,1.820,1.224,2.052,1.417,0.571,1.036,0.961,�k�k��,6.4,��
2016/11/19,17:20,1.083,1.824,1.223,2.052,1.420,0.572,1.036,0.961,�k��,8.3,��
2016/11/19,17:30,1.084,1.819,1.226,2.053,1.418,0.571,1.035,0.961,�k�k��,8.2,��
2016/11/19,17:40,1.084,1.820,1.228,2.052,1.418,0.570,1.036,0.960,�k�k��,8.0,��
2016/11/19,17:50,1.083,1.826,1.225,2.054,1.417,0.571,1.036,0.962,�k�k��,8.0,��
2016/11/19,18:00,1.084,1.822,1.225,2.054,1.418,0.570,1.038,0.962,�k�k��,6.6,��
2016/11/19,18:10,1.084,1.823,1.225,2.055,1.418,0.570,1.036,0.963,�k�k��,6.2,��
2016/11/19,18:20,1.084,1.824,1.228,2.053,1.420,0.572,1.037,0.962,�k�k��,6.1,��
2016/11/19,18:30,1.085,1.826,1.226,2.055,1.421,0.574,1.039,0.961,�k�k��,6.8,��
2016/11/19,18:40,1.085,1.827,1.226,2.052,1.420,0.571,1.038,0.962,�k�k��,6.5,��
2016/11/19,18:50,1.082,1.826,1.229,2.056,1.420,0.572,1.037,0.962,�k�k��,6.3,��
2016/11/19,19:00,1.085,1.827,1.225,2.059,1.420,0.572,1.037,0.962,�k�k��,6.8,��
2016/11/19,19:10,1.087,1.825,1.227,2.058,1.420,0.571,1.038,0.963,�k�k��,6.7,��
2016/11/19,19:20,1.086,1.827,1.226,2.059,1.423,0.571,1.039,0.962,�k�k��,6.2,��
2016/11/19,19:30,1.087,1.826,1.226,2.056,1.421,0.572,1.038,0.963,�k�k��,7.1,��
2016/11/19,19:40,1.086,1.828,1.228,2.056,1.423,0.570,1.039,0.960,�k�k��,6.8,��
2016/11/19,19:50,1.087,1.828,1.227,2.055,1.422,0.573,1.039,0.965,�k�k��,7.4,��
2016/11/19,20:00,1.085,1.832,1.229,2.057,1.421,0.571,1.038,0.962,�k,7.5,��
2016/11/19,20:10,1.087,1.827,1.228,2.061,1.422,0.573,1.039,0.963,�k,7.7,��
2016/11/19,20:20,1.087,1.828,1.227,2.058,1.417,0.572,1.039,0.962,�k�k��,7.7,��
2016/11/19,20:30,1.088,1.829,1.228,2.058,1.424,0.571,1.038,0.963,�k,7.4,��
2016/11/19,20:40,1.087,1.831,1.228,2.061,1.424,0.570,1.038,0.962,�k,6.9,��
2016/11/19,20:50,1.084,1.829,1.227,2.060,1.421,0.572,1.039,0.961,�k,7.2,��
2016/11/19,21:00,1.086,1.828,1.226,2.059,1.425,0.572,1.040,0.963,�k,6.2,��
2016/11/19,21:10,1.087,1.832,1.229,2.060,1.423,0.573,1.038,0.964,�k,6.5,��
2016/11/19,21:20,1.084,1.829,1.229,2.057,1.424,0.572,1.041,0.963,�k,6.8,��
2016/11/19,21:30,1.086,1.826,1.228,2.060,1.423,0.573,1.037,0.964,�k,6.6,��
2016/11/19,21:40,1.087,1.827,1.226,2.059,1.428,0.571,1.038,0.964,�k,7.5,��
2016/11/19,21:50,1.087,1.829,1.229,2.062,1.421,0.571,1.040,0.961,�k,8.1,��
2016/11/19,22:00,1.088,1.828,1.227,2.059,1.424,0.573,1.039,0.963,�k�k��,8.5,��
2016/11/19,22:10,1.085,1.829,1.227,2.059,1.423,0.572,1.041,0.963,�k,9.2,��
2016/11/19,22:20,1.088,1.828,1.228,2.058,1.424,0.571,1.040,0.963,�k,8.9,��
2016/11/19,22:30,1.086,1.830,1.228,2.058,1.423,0.571,1.039,0.962,�k,9.7,��
2016/11/19,22:40,1.086,1.830,1.227,2.061,1.422,0.573,1.039,0.962,�k,9.5,��
2016/11/19,22:50,1.086,1.829,1.227,2.059,1.424,0.572,1.039,0.963,�k,9.7,��
2016/11/19,23:00,1.083,1.830,1.226,2.059,1.423,0.572,1.041,0.962,�k,9.7,��
2016/11/19,23:10,1.087,1.829,1.226,2.060,1.423,0.573,1.040,0.961,�k,8.5,��
2016/11/19,23:20,1.085,1.827,1.228,2.060,1.421,0.572,1.042,0.961,�k�k��,7.2,��
2016/11/19,23:30,1.084,1.830,1.227,2.054,1.421,0.572,1.042,0.964,�k,7.4,��
2016/11/19,23:40,1.087,1.827,1.225,2.060,1.426,0.573,1.042,0.962,�k,6.9,��
2016/11/19,23:50,1.085,1.828,1.227,2.060,1.423,0.572,1.041,0.962,�k,6.1,��
